{"data":{"norad_id":63840,"epoch":"2026-05-25T00:02:50.915616Z","epoch_age_seconds":68163,"freshness":"FRESH","line1":"1 63840U 25093E   26145.00197819  .00013708  00000+0  50650-3 0  9990","line2":"2 63840  43.0034   6.8780 0001382 270.8278  89.2415 15.27596423 59427","mean_motion":15.27596423,"eccentricity":0.0001382,"inclination_deg":43.0034,"raan_deg":6.878,"arg_perigee_deg":270.8278,"mean_anomaly_deg":89.2415,"bstar":0.0005065,"rev_number":5942,"period_min":94.265735263508,"perigee_km":482.05171098772,"apogee_km":483.94812923244,"semimajor_km":6861.1369201101,"source":"CELESTRAK","updated_at":"2026-05-25T13:38:20.146654Z"}}